EN

Hourly Weather Peterborough

Today, 24 October, Saturday

Time Temperature Precipitation Wind Pressure Humidity
00:00 +7°C° 0 mm 3 mps 755 mmHg 85%
01:00 +6°C° 0 mm 4 mps 754 mmHg 84%
02:00 +6°C° 0 mm 4 mps 754 mmHg 83%
03:00 +6°C° 0 mm 5 mps 753 mmHg 82%
04:00 +7°C° 0 mm 5 mps 753 mmHg 82%
05:00 +7°C° 0 mm 5 mps 752 mmHg 82%
06:00 +7°C° 0 mm 6 mps 752 mmHg 81%
07:00 +9°C° 0 mm 7 mps 751 mmHg 81%
08:00 +10°C° 0 mm 7 mps 751 mmHg 81%
09:00 +11°C° 0 mm 8 mps 750 mmHg 81%
10:00 +12°C° 0 mm 8 mps 749 mmHg 80%
11:00 +12°C° 0 mm 9 mps 749 mmHg 80%
12:00 +13°C° 0 mm 9 mps 748 mmHg 80%
13:00 +13°C° 0.2 mm 9 mps 747 mmHg 79%
14:00 +14°C° 0.2 mm 10 mps 746 mmHg 79%
15:00 +14°C° 0.2 mm 10 mps 746 mmHg 79%
16:00 +13°C° 0.7 mm 9 mps 745 mmHg 81%
17:00 +13°C° 0.7 mm 8 mps 745 mmHg 83%
18:00 +12°C° 0.7 mm 7 mps 745 mmHg 84%
19:00 +11°C° 2.7 mm 6 mps 744 mmHg 88%
20:00 +11°C° 2.7 mm 4 mps 743 mmHg 92%
21:00 +10°C° 2.7 mm 2 mps 743 mmHg 95%
22:00 +10°C° 1.7 mm 4 mps 743 mmHg 93%
23:00 +9°C° 1.7 mm 5 mps 743 mmHg 91%

Tomorrow, 25 October, Sunday

Time Temperature Precipitation Wind Pressure Humidity
00:00 +9°C° 1.7 mm 7 mps 743 mmHg 89%
01:00 +8°C° 0.4 mm 6 mps 743 mmHg 89%
02:00 +7°C° 0.4 mm 5 mps 744 mmHg 88%
03:00 +6°C° 0.4 mm 4 mps 744 mmHg 88%
04:00 +6°C° 0 mm 4 mps 744 mmHg 88%
05:00 +6°C° 0 mm 5 mps 745 mmHg 89%
06:00 +7°C° 0 mm 5 mps 745 mmHg 89%
07:00 +7°C° 0 mm 6 mps 745 mmHg 85%
08:00 +8°C° 0 mm 6 mps 745 mmHg 81%
09:00 +8°C° 0 mm 7 mps 745 mmHg 77%
10:00 +9°C° 0 mm 7 mps 745 mmHg 75%
11:00 +10°C° 0 mm 7 mps 745 mmHg 72%
12:00 +11°C° 0 mm 7 mps 745 mmHg 69%
13:00 +11°C° 0.1 mm 7 mps 745 mmHg 70%
14:00 +11°C° 0.1 mm 6 mps 745 mmHg 71%
15:00 +11°C° 0.1 mm 6 mps 744 mmHg 73%
16:00 +10°C° 0.4 mm 6 mps 745 mmHg 76%
17:00 +9°C° 0.4 mm 5 mps 745 mmHg 79%
18:00 +8°C° 0.4 mm 5 mps 745 mmHg 82%
19:00 +8°C° 0 mm 5 mps 745 mmHg 83%
20:00 +7°C° 0 mm 4 mps 745 mmHg 85%
21:00 +7°C° 0 mm 4 mps 745 mmHg 87%
22:00 +7°C° 0 mm 4 mps 745 mmHg 87%
23:00 +6°C° 0 mm 5 mps 745 mmHg 88%

Day after tomorrow, 26 October, Monday

Time Temperature Precipitation Wind Pressure Humidity
00:00 +6°C° 0 mm 5 mps 745 mmHg 88%
01:00 +6°C° 0 mm 5 mps 745 mmHg 87%
02:00 +6°C° 0 mm 5 mps 745 mmHg 87%
03:00 +6°C° 0 mm 5 mps 745 mmHg 87%
04:00 +5°C° 0 mm 6 mps 745 mmHg 86%
05:00 +5°C° 0 mm 6 mps 745 mmHg 86%
06:00 +5°C° 0 mm 6 mps 745 mmHg 86%
07:00 +7°C° 0 mm 6 mps 744 mmHg 84%
08:00 +8°C° 0 mm 7 mps 744 mmHg 82%
09:00 +8°C° 0 mm 7 mps 744 mmHg 80%
10:00 +9°C° 0.3 mm 7 mps 743 mmHg 80%
11:00 +9°C° 0.3 mm 8 mps 743 mmHg 80%
12:00 +9°C° 0.3 mm 8 mps 743 mmHg 80%
13:00 +10°C° 0.2 mm 7 mps 743 mmHg 79%
14:00 +10°C° 0.2 mm 6 mps 743 mmHg 77%
15:00 +10°C° 0.2 mm 6 mps 743 mmHg 75%
16:00 +9°C° 0.1 mm 5 mps 744 mmHg 77%
17:00 +9°C° 0.1 mm 5 mps 744 mmHg 80%
18:00 +8°C° 0.1 mm 5 mps 745 mmHg 82%
19:00 +7°C° 0 mm 5 mps 745 mmHg 84%
20:00 +7°C° 0 mm 5 mps 746 mmHg 85%
21:00 +7°C° 0 mm 5 mps 746 mmHg 87%
22:00 +6°C° 0 mm 5 mps 746 mmHg 87%
23:00 +6°C° 0 mm 5 mps 746 mmHg 88%

, 27 October, Tuesday

Time Temperature Precipitation Wind Pressure Humidity
00:00 +6°C° 0 mm 5 mps 746 mmHg 89%
01:00 +6°C° 0 mm 5 mps 746 mmHg 89%
02:00 +6°C° 0 mm 5 mps 746 mmHg 90%
03:00 +5°C° 0 mm 5 mps 746 mmHg 90%
04:00 +5°C° 0 mm 5 mps 747 mmHg 90%
05:00 +5°C° 0 mm 5 mps 747 mmHg 90%
06:00 +5°C° 0 mm 5 mps 747 mmHg 90%
07:00 +6°C° 0 mm 5 mps 747 mmHg 88%
08:00 +6°C° 0 mm 5 mps 747 mmHg 85%
09:00 +7°C° 0 mm 5 mps 747 mmHg 83%
10:00 +8°C° 0 mm 6 mps 746 mmHg 82%
11:00 +9°C° 0 mm 6 mps 746 mmHg 80%
12:00 +9°C° 0 mm 7 mps 745 mmHg 79%
13:00 +10°C° 0.5 mm 8 mps 744 mmHg 82%
14:00 +10°C° 0.5 mm 8 mps 743 mmHg 85%
15:00 +10°C° 0.5 mm 9 mps 742 mmHg 89%
16:00 +10°C° 0.6 mm 8 mps 742 mmHg 86%
17:00 +9°C° 0.6 mm 8 mps 742 mmHg 83%
18:00 +9°C° 0.6 mm 7 mps 742 mmHg 80%
19:00 +8°C° 0 mm 6 mps 742 mmHg 80%
20:00 +7°C° 0 mm 6 mps 743 mmHg 80%
21:00 +5°C° 0 mm 6 mps 744 mmHg 80%
22:00 +5°C° 0 mm 6 mps 744 mmHg 81%
23:00 +5°C° 0 mm 6 mps 744 mmHg 83%

27 October, Tuesday

Time Temperature Precipitation Wind Pressure Humidity
00:00 +6°C° 0 mm 5 mps 746 mmHg 89%
01:00 +6°C° 0 mm 5 mps 746 mmHg 89%
02:00 +6°C° 0 mm 5 mps 746 mmHg 90%
03:00 +5°C° 0 mm 5 mps 746 mmHg 90%
04:00 +5°C° 0 mm 5 mps 747 mmHg 90%
05:00 +5°C° 0 mm 5 mps 747 mmHg 90%
06:00 +5°C° 0 mm 5 mps 747 mmHg 90%
07:00 +6°C° 0 mm 5 mps 747 mmHg 88%
08:00 +6°C° 0 mm 5 mps 747 mmHg 85%
09:00 +7°C° 0 mm 5 mps 747 mmHg 83%
10:00 +8°C° 0 mm 6 mps 746 mmHg 82%
11:00 +9°C° 0 mm 6 mps 746 mmHg 80%
12:00 +9°C° 0 mm 7 mps 745 mmHg 79%
13:00 +10°C° 0.5 mm 8 mps 744 mmHg 82%
14:00 +10°C° 0.5 mm 8 mps 743 mmHg 85%
15:00 +10°C° 0.5 mm 9 mps 742 mmHg 89%
16:00 +10°C° 0.6 mm 8 mps 742 mmHg 86%
17:00 +9°C° 0.6 mm 8 mps 742 mmHg 83%
18:00 +9°C° 0.6 mm 7 mps 742 mmHg 80%
19:00 +8°C° 0 mm 6 mps 742 mmHg 80%
20:00 +7°C° 0 mm 6 mps 743 mmHg 80%
21:00 +5°C° 0 mm 6 mps 744 mmHg 80%
22:00 +5°C° 0 mm 6 mps 744 mmHg 81%
23:00 +5°C° 0 mm 6 mps 744 mmHg 83%

28 October, Wednesday

Time Temperature Precipitation Wind Pressure Humidity
00:00 +5°C° 0 mm 6 mps 745 mmHg 84%
01:00 +5°C° 0 mm 6 mps 744 mmHg 84%
02:00 +5°C° 0 mm 6 mps 744 mmHg 84%
03:00 +5°C° 0 mm 7 mps 743 mmHg 84%
04:00 +6°C° 0 mm 7 mps 743 mmHg 84%
05:00 +6°C° 0 mm 7 mps 743 mmHg 83%
06:00 +6°C° 0 mm 7 mps 743 mmHg 83%
07:00 +8°C° 0 mm 7 mps 742 mmHg 81%
08:00 +7°C° 0 mm 8 mps 742 mmHg 80%
09:00 +7°C° 0 mm 9 mps 742 mmHg 78%
10:00 +8°C° 0.2 mm 9 mps 742 mmHg 78%
11:00 +8°C° 0.2 mm 9 mps 742 mmHg 78%
12:00 +8°C° 0.2 mm 9 mps 742 mmHg 78%
13:00 +8°C° 0.2 mm 9 mps 742 mmHg 78%
14:00 +8°C° 0.2 mm 9 mps 742 mmHg 79%
15:00 +8°C° 0.2 mm 10 mps 742 mmHg 79%
16:00 +8°C° 0.5 mm 10 mps 742 mmHg 80%
17:00 +8°C° 0.5 mm 10 mps 741 mmHg 80%
18:00 +7°C° 0.5 mm 10 mps 741 mmHg 81%
19:00 +8°C° 0.2 mm 10 mps 742 mmHg 79%
20:00 +8°C° 0.2 mm 11 mps 742 mmHg 77%
21:00 +8°C° 0.2 mm 11 mps 742 mmHg 75%
22:00 +8°C° 0.1 mm 11 mps 743 mmHg 75%
23:00 +8°C° 0.1 mm 11 mps 744 mmHg 75%

29 October, Thursday

Time Temperature Precipitation Wind Pressure Humidity
00:00 +8°C° 0.1 mm 11 mps 744 mmHg 75%
01:00 +8°C° 0 mm 10 mps 745 mmHg 76%
02:00 +8°C° 0 mm 9 mps 746 mmHg 76%
03:00 +7°C° 0 mm 9 mps 747 mmHg 76%
04:00 +7°C° 0 mm 8 mps 748 mmHg 77%
05:00 +8°C° 0 mm 7 mps 748 mmHg 78%
06:00 +8°C° 0 mm 6 mps 749 mmHg 79%
07:00 +8°C° 0 mm 7 mps 749 mmHg 81%
08:00 +9°C° 0 mm 8 mps 748 mmHg 82%
09:00 +9°C° 0 mm 10 mps 748 mmHg 84%
10:00 +11°C° 0.1 mm 10 mps 748 mmHg 84%
11:00 +12°C° 0.1 mm 10 mps 747 mmHg 85%
12:00 +12°C° 0.1 mm 11 mps 747 mmHg 85%
13:00 +13°C° 0.7 mm 10 mps 747 mmHg 86%
14:00 +13°C° 0.7 mm 10 mps 747 mmHg 88%
15:00 +13°C° 0.7 mm 10 mps 747 mmHg 89%
16:00 +13°C° 0.6 mm 10 mps 747 mmHg 88%
17:00 +13°C° 0.6 mm 9 mps 748 mmHg 87%
18:00 +13°C° 0.6 mm 9 mps 748 mmHg 87%
19:00 +13°C° 0.1 mm 9 mps 749 mmHg 85%
20:00 +12°C° 0.1 mm 8 mps 749 mmHg 83%
21:00 +12°C° 0.1 mm 8 mps 750 mmHg 81%
22:00 +11°C° 0.3 mm 7 mps 750 mmHg 83%
23:00 +11°C° 0.3 mm 6 mps 750 mmHg 86%
Show more